Flag for Germany Weather past 2 weeks in Lutherstadt Eisleben, Saxony-Anhalt, Germany

Now
18 °F

Overcast.


Feels Like: 11 °F
Forecast: 20 / 31 °F
Wind: 5 mph from Northeast

Location: Leipzig-Schkeuditz

Current Time: Dec 28, 2014 at 10:38:31 AM

Latest Report: Dec 28, 2014 at 10:00 AM


Visibility: 9 mi

Pressure: 30.20 "Hg

Humidity: 87%

Dew point: 15 °F

Location of Lutherstadt EislebenLocation

Historic Weather in Lutherstadt Eisleben — Graph

°F

Lutherstadt Eisleben temperature yesterday

Maximum temperature yesterday: 30 °F (at 1:00 PM)
Minimum temperature yesterday: 23 °F (at 11:00 PM)
Average temperature yesterday: 26 °F

Past Weeks' High & Low Weather Summary

 TemperatureHumidityPressure
High54 °F (Dec 19, 12:00 AM)100% (Dec 15, 5:00 AM)30.36 "Hg (Dec 15, 5:00 AM)
Low18 °F (Dec 28, 8:00 AM)63% (Dec 15, 1:00 PM)29.67 "Hg (Dec 17, 5:00 PM)
Average40 °F85%29.98 "Hg
* Reported Dec 13 9:00 AM — Dec 28 9:00 AM, Lutherstadt Eisleben, Weather by CustomWeather, © 2014

Note: Actual official high and low records may vary slightly from our data, if they occured in-between our weather recording intervals... More about our weather records

Advertising

Lutherstadt Eisleben weather history for previous 24 hours

 ConditionsComfort  
Time TempWeatherWind HumidityBarometerVisibility
9:00 AM
Dec 28
18 °FOvercast.5 mph88%30.16 "Hg9 mi
8:00 AM18 °FOvercast.5 mph85%30.13 "Hg12 mi
7:00 AM18 °FPassing clouds.5 mph86%30.08 "Hg9 mi
6:00 AM18 °FOvercast.7 mph85%30.04 "Hg7 mi
5:00 AM18 °FOvercast.9 mph84%30.00 "Hg7 mi
3:00 AM19 °FOvercast.8 mph86%29.93 "Hg9 mi
2:00 AM20 °FOvercast.9 mph84%29.90 "Hg9 mi
1:00 AM21 °FOvercast.8 mph85%29.88 "Hg9 mi
12:00 AM22 °FPassing clouds.7 mph85%29.85 "Hg9 mi
11:00 PM
Dec 27
23 °FPassing clouds.9 mph87%29.82 "Hg9 mi
9:00 PM25 °FPassing clouds.8 mph89%29.77 "Hg12 mi
8:00 PM26 °FOvercast.8 mph85%29.75 "Hg19 mi
7:00 PM26 °FOvercast.8 mph86%29.74 "Hg25 mi
6:00 PM26 °FOvercast.8 mph84%29.74 "Hg25 mi
5:00 PM27 °FOvercast.7 mph82%29.73 "Hg25 mi
3:00 PM29 °FOvercast.7 mph81%29.74 "Hg28 mi
2:00 PM29 °FOvercast.6 mph84%29.75 "Hg31 mi
1:00 PM30 °FOvercast.7 mph78%29.77 "Hg31 mi
12:00 PM29 °FOvercast.7 mph77%29.80 "Hg31 mi
11:00 AM27 °FOvercast.6 mph82%29.83 "Hg31 mi
Weather by CustomWeather, © 2014

See weather overviewHow to use our weather pages